Find Starlink 5830

NORAD ID: 57065 Int'l Des: 2023-088 Owner: SPXS Country: US Constellation: starlink operational
LEOCIRCULAR

当前视图

正在加载3D地球...

About Starlink 5830

Starlink 5830 (NORAD 57065) is a starlink constellation satellite (v1.5) launched Jun 22, 2023 by SPXS of US. It operates in LEO, CIRCULAR orbit with a mass of 305.00 kg.

关于 Starlink 5830

正在加载描述...

即将过境

Passes for default location (London). Set your location on the main map for personalized predictions.

高度历史

Loading altitude history...

两行轨道根数

1 57065U 23088T 26173.64822715 -.00000200 00000-0 22615-5 0 9992
2 57065 43.0014 241.3539 0001546 289.7052 70.3633 15.27575209165369
Epoch: Jun 22, 2026 • Age: 23 hours

当前状态

高度 493.8 km
速度 7.62 km/s
星下点 -38.55°S, 16.61°W
发射日期 Jun 22, 2023
运行时间 3 years
类型 internet

技术详情

分类 Payload
质量 305.00 kg
干质量 290.00 kg
总质量 305.00 kg
长度 0.20 m
直径 2.80 m
跨度 9.00 m
形状 Box + pan
制造商 SPXS
平台类型 Starlink
阶段状态 In Orbit
所有者/国家 SPXS/US

Most Searched